Simultaneous Nadir Overpasses (SNOs) Predictions

Prediction of SNOs between TERRA and METOP-C Satellite Orbit:

Table of predicted SNOs for the next 14.0 days since TLE Epoch: 9/10/2022
Index Date (TERRA) Time (TERRA) Lat,Lon (TERRA) SZA (TERRA ) Date (METOP-C) Time (METOP-C) Lat,Lon (METOP-C) SZA (METOP-C ) Distance(km) Time Diff (sec)
1 09/10/2022 15:55:27 -81.14, 160.82 101.52 09/10/2022 15:54:55 -81.14, 160.66 101.55 2.78 32
2 09/10/2022 16:44:52 81.17, -31.14 78.56 09/10/2022 16:45:34 81.17, -31.04 78.59 1.72 42
3 09/13/2022 11:29:36 -81.15,-132.65 100.41 09/13/2022 11:29:14 -81.15,-132.48 100.40 3.05 22
4 09/13/2022 12:19:01 81.17, 35.37 79.66 09/13/2022 12:19:54 81.17, 35.39 79.69 0.49 53
5 09/16/2022 07:03:45 -81.15, -66.22 99.31 09/16/2022 07:03:35 -81.14, -66.40 99.34 3.21 10
6 09/16/2022 07:53:10 81.17, 101.77 80.76 09/16/2022 07:54:14 81.17, 101.79 80.79 0.26 64
7 09/19/2022 01:48:26 81.14,-167.53 81.77 09/19/2022 01:47:14 81.14,-167.48 81.74 0.85 72
8 09/19/2022 02:37:53 -81.14, 0.12 98.22 09/19/2022 02:37:54 -81.14, 0.01 98.23 1.87 1
9 09/21/2022 21:22:35 81.13,-101.30 82.84 09/21/2022 21:21:34 81.13,-101.17 82.84 2.52 61



Historial Predications of SNOs between TERRA and METOP-C
